Theta_e
305 306 307 307 308 308 306 299 288 301 304 289 289 285 288 293 291 295 293 293 290 289 290 289 290 294 298 303 301 296 298 295 289 292 300 301 298 296 295 288 288 291 288 288
305 305 305 306 307 308 303 294 292 302 300 283 283 288 288 291 290 291 291 291 292 292 290 286 295 297 302 303 299 298 298 293 286 289 295 298 296 297 298 296 293 289 284 288
304 305 305 306 307 308 303 294 285 293 294 292 286 285 286 286 293 292 292 291 292 291 289 292 293 296 300 303 301 302 302 295 290 286 290 295 293 296 297 295 287 288 288 292
304 305 305 305 306 307 302 292 286 291 285 286 288 288 288 286 286 292 292 289 289 289 285 288 290 295 298 301 301 302 301 292 293 294 296 297 296 296 296 294 295 291 294 295
304 305 305 305 306 306 299 285 287 292 289 290 288 289 285 285 288 289 289 287 290 290 287 288 287 295 296 296 299 297 301 292 293 291 295 296 294 296 297 296 295 297 297 296
304 304 304 304 305 305 298 297 294 293 290 289 287 286 287 287 290 291 293 291 289 288 290 294 299 300 301 300 295 292 295 292 291 286 293 292 286 293 295 296 298 297 292 298
303 304 304 304 304 304 300 293 296 290 285 287 287 289 289 289 290 289 293 293 290 293 301 302 300 299 299 300 299 299 290 289 291 284 289 282 293 299 298 296 297 298 297 298
303 303 303 303 304 304 300 296 295 291 285 289 289 289 289 290 292 291 292 295 296 297 297 292 288 285 288 292 296 297 296 290 286 285 286 291 294 296 296 294 294 299 298 298
303 303 303 303 303 304 301 296 298 295 288 288 292 289 290 287 288 289 292 297 298 295 290 287 281 280 287 286 289 297 294 291 286 286 284 281 292 299 301 300 288 300 301 300
303 303 303 303 303 304 301 298 299 295 286 293 294 290 289 293 291 288 291 292 293 295 283 282 282 282 290 283 283 284 284 284 283 283 282 287 298 301 303 289 289 302 302 302
303 303 303 303 303 303 301 298 299 296 290 294 297 298 294 293 293 287 290 291 292 288 283 284 283 282 288 288 290 287 285 284 285 287 283 282 299 300 294 296 301 304 303 302
302 302 302 303 303 303 302 295 299 299 295 294 301 301 303 299 298 294 294 293 293 292 287 287 287 281 285 286 282 294 285 289 287 291 289 298 300 301 303 305 304 305 302 305
301 302 303 303 303 303 302 297 298 296 292 294 293 295 302 305 303 305 295 295 298 295 297 292 291 283 286 279 284 289 294 298 291 291 294 297 299 303 305 307 307 308 307 307
301 302 302 302 302 303 302 297 299 299 295 287 290 303 299 306 306 307 305 301 304 300 297 291 288 285 293 284 290 289 295 296 294 293 296 299 301 304 306 307 308 308 308 307
301 302 302 302 302 303 301 300 301 303 294 288 292 298 302 304 303 303 303 301 301 295 293 289 289 292 291 292 292 289 295 293 290 289 298 299 300 305 306 304 308 308 308 306
302 302 302 302 303 303 299 290 301 303 303 294 286 297 298 298 300 301 300 300 300 298 292 289 295 299 294 284 285 295 297 298 299 297 301 300 301 305 307 306 306 307 306 307
301 301 302 302 302 301 295 292 297 302 302 291 283 284 294 298 298 296 297 301 298 297 296 293 293 294 295 283 283 295 297 300 301 302 302 300 302 301 303 303 304 305 305 306
302 302 302 302 303 302 296 299 302 303 294 292 281 281 286 295 288 289 296 292 296 297 293 296 293 295 293 284 290 292 293 296 298 299 301 300 301 302 301 301 301 300 300 302
302 301 302 300 298 294 293 302 303 302 295 284 281 282 279 292 290 291 291 294 285 296 289 291 294 287 282 285 285 288 289 291 293 297 298 298 298 299 299 298 297 298 296 297
301 300 295 289 295 300 300 297 292 291 292 291 282 287 283 290 286 283 285 283 285 281 288 294 287 282 287 286 287 287 288 291 292 291 289 291 291 295 289 288 288 287 286 285
298 292 290 295 300 295 291 284 284 287 281 286 286 285 286 292 285 287 285 282 283 280 285 285 283 278 282 284 284 285 286 288 289 291 290 289 289 288 286 284 283 282 282 280
297 295 297 295 291 288 282 279 283 281 281 286 285 286 289 288 291 288 288 286 285 281 286 281 275 278 282 282 282 282 284 285 284 285 284 285 284 284 282 281 280 279 279 278
298 294 287 289 285 281 275 278 280 282 283 285 287 286 285 287 290 287 285 284 283 286 281 275 276 279 281 281 281 280 281 281 281 280 280 280 280 280 280 279 279 279 278 278
287 284 275 279 275 277 277 278 280 283 284 283 285 285 285 285 285 285 284 283 283 278 274 271 276 279 280 281 280 279 278 278 278 278 278 278 277 277 277 277 277 277 276 277
279 278 274 275 280 280 281 282 283 284 285 283 285 285 285 284 283 283 284 279 273 274 270 275 277 279 279 279 279 278 278 277 276 276 276 276 276 276 276 277 277 277 277 276
276 274 272 274 272 272 278 279 280 285 283 284 285 284 281 279 278 275 274 273 270 271 274 277 277 276 277 278 278 278 278 278 277 277 277 277 276 275 275 276 276 276 276 275
277 272 271 271 273 274 279 280 280 284 284 281 282 275 275 280 275 272 274 270 272 274 275 276 277 276 276 277 277 277 277 277 278 278 278 277 277 277 276 275 276 276 276 275
Wind_Speed
25 24 24 23 22 22 17 5 7 11 14 8 6 24 13 9 12 18 18 8 12 14 17 15 11 5 6 14 11 17 18 4 14 22 11 11 9 13 10 6 6 4 3 11
27 26 25 25 24 27 9 6 5 10 13 14 18 17 30 24 21 13 6 15 9 8 17 10 5 2 5 10 13 10 11 15 14 12 12 9 19 13 10 5 5 7 6 6
28 27 27 26 27 29 14 6 7 5 14 13 26 23 26 26 9 24 21 17 16 19 18 14 10 3 3 11 14 24 14 14 16 20 5 5 6 7 9 10 5 5 8 5
28 28 28 30 30 30 15 7 7 7 15 25 19 19 7 26 19 16 17 15 24 21 10 15 11 3 6 7 12 16 6 11 21 18 14 12 14 21 19 17 14 11 7 7
27 25 23 25 24 27 15 7 7 7 7 18 22 19 29 28 20 17 20 19 17 13 19 21 13 4 4 1 9 12 11 13 6 7 19 20 15 16 22 16 6 14 11 12
25 26 27 28 27 24 10 5 4 7 13 16 17 29 34 30 16 16 23 17 18 20 23 8 5 4 9 10 4 6 13 11 7 16 3 5 12 18 15 9 15 12 11 13
28 28 29 29 29 27 7 3 5 8 6 18 24 28 27 27 19 20 15 24 16 25 6 4 7 6 5 6 7 11 4 17 5 5 5 9 16 6 13 10 13 12 6 4
30 30 30 31 31 30 13 3 4 6 10 17 21 25 21 25 16 21 21 23 9 7 9 8 4 3 2 7 8 13 6 4 7 4 12 5 12 7 12 11 12 7 6 5
32 32 33 33 33 30 14 7 6 1 5 12 26 22 22 14 16 17 18 18 9 4 4 5 7 5 3 4 1 5 10 1 3 6 8 17 3 15 8 1 8 4 4 8
31 32 33 34 35 33 15 6 12 3 1 6 18 16 20 19 12 12 14 9 7 4 3 3 6 6 6 5 3 6 4 4 3 11 5 8 7 9 1 5 6 6 6 6
28 29 31 34 35 35 21 9 14 7 1 4 7 9 8 15 14 13 5 3 7 2 5 5 4 5 5 3 7 8 9 9 7 5 4 6 15 7 12 7 6 10 7 3
23 27 29 30 35 35 30 5 11 5 2 4 6 10 6 8 13 11 7 7 5 7 5 4 5 3 6 15 9 3 4 8 9 10 6 8 13 7 12 15 11 12 3 8
22 20 27 32 33 35 27 7 9 7 7 5 4 3 5 2 3 6 4 3 5 4 4 2 3 5 6 2 6 4 1 4 3 6 5 9 11 8 16 15 13 18 7 9
20 20 23 27 31 34 22 9 8 8 6 4 4 10 3 6 3 3 3 11 3 8 4 3 2 2 3 5 6 5 4 7 4 2 3 13 12 5 12 13 17 21 18 4
20 22 27 30 31 30 12 4 9 6 4 4 3 1 4 8 8 8 6 3 5 2 4 3 6 4 4 3 2 4 5 6 5 7 11 10 5 7 13 11 11 13 10 9
24 23 27 29 25 18 7 3 7 3 3 1 4 3 7 5 5 9 6 5 4 2 4 2 3 3 6 1 2 4 3 2 3 3 4 6 9 8 3 6 3 5 9 9
25 26 28 28 17 7 1 3 6 8 7 2 3 3 4 4 4 2 3 3 3 3 0 3 2 3 2 3 2 13 17 15 11 14 8 5 8 5 6 5 7 7 7 6
26 25 23 16 12 8 5 6 7 8 3 4 4 1 4 7 1 2 2 2 4 3 2 3 3 4 2 5 11 15 17 16 15 17 9 4 4 6 7 7 7 7 8 7
23 22 15 6 5 4 1 3 7 3 5 3 3 3 1 5 2 3 2 3 2 2 3 5 3 3 5 7 11 12 14 14 16 15 9 11 10 10 8 11 13 8 12 13
9 7 5 4 2 4 4 4 3 4 3 3 2 2 3 1 2 2 3 1 4 3 6 1 5 4 5 10 11 11 13 14 15 9 11 10 12 12 13 14 12 14 14 15
2 3 5 0 7 2 3 3 4 2 2 1 2 3 3 2 3 2 2 3 2 4 5 6 3 4 8 12 11 11 12 12 11 9 10 11 10 11 12 15 16 15 15 16
3 8 4 1 3 3 5 3 2 1 2 1 3 3 3 2 2 2 1 3 2 4 2 6 4 5 9 10 12 13 12 11 13 14 14 14 16 14 15 14 14 15 15 15
1 4 5 3 4 5 5 3 1 3 4 3 3 2 3 2 3 1 3 3 2 3 5 5 4 8 9 10 9 11 12 13 15 16 16 18 19 18 16 16 14 16 17 14
4 5 7 5 5 5 4 4 3 2 3 5 2 1 2 2 2 1 4 3 3 5 5 4 4 7 8 9 9 10 13 14 15 16 16 19 18 18 18 17 15 17 18 16
6 7 6 5 4 3 3 4 3 2 5 3 1 2 1 2 3 4 5 7 6 7 4 2 4 7 9 10 10 11 11 12 14 14 16 16 17 18 18 16 16 16 16 16
6 8 5 5 4 5 4 4 3 2 4 2 1 3 4 5 3 5 5 5 5 3 4 4 7 10 10 10 10 12 12 14 14 14 15 15 16 16 16 16 16 16 16 15
6 4 1 2 0 2 3 4 6 5 3 3 4 8 6 4 6 6 6 5 5 6 6 7 9 9 9 11 12 13 13 14 14 14 14 14 13 14 16 17 15 14 14 13
Wind_Direction
258 256 245 241 230 220 200 190 210 176 156 185 208 225 202 234 250 212 253 265 268 279 292 299 311 295 234 340 335 206 209 186 230 253 277 221 196 202 198 143 202 191 175 253
256 247 244 238 225 212 197 204 159 186 171 201 217 230 235 248 254 265 278 236 237 260 274 290 193 300 335 15 0 321 218 222 240 276 254 257 214 215 199 187 131 199 195 247
253 249 242 229 223 216 200 166 166 187 200 221 210 209 229 236 256 231 252 270 276 271 273 269 279 275 305 342 340 327 311 207 219 227 251 181 254 245 242 213 163 205 194 234
250 241 239 233 221 212 202 165 212 191 194 209 213 206 207 231 229 232 198 244 245 242 256 265 246 188 341 324 341 332 307 259 230 225 215 239 207 224 248 244 220 205 220 217
246 234 219 216 211 214 213 167 181 193 214 201 205 217 221 231 216 214 215 227 238 246 247 243 273 171 132 22 350 334 323 263 223 239 211 215 232 224 223 230 236 223 218 229
240 232 225 223 219 204 210 162 225 186 200 185 190 214 227 228 218 252 229 223 222 240 244 289 307 194 153 149 157 305 307 331 208 242 243 225 261 235 253 229 249 245 210 219
234 230 226 224 221 210 229 152 165 194 197 195 205 211 221 236 219 230 264 219 222 234 102 105 66 72 77 155 171 165 280 321 275 185 128 215 258 196 248 241 245 256 236 216
235 227 221 218 220 214 211 175 189 184 206 201 204 208 210 226 226 225 239 254 253 171 175 213 255 352 37 227 197 169 130 307 305 164 208 249 280 240 203 207 248 224 229 248
234 226 222 215 214 214 209 166 180 224 189 201 202 198 203 207 206 239 251 253 262 263 208 147 211 218 247 229 285 165 153 216 33 313 204 215 149 245 255 51 261 253 244 236
230 223 219 212 207 207 201 183 178 171 174 223 212 199 195 196 194 212 229 230 266 172 173 204 184 217 202 263 311 145 148 105 0 276 263 290 222 180 206 218 230 254 236 223
223 216 212 207 204 199 192 185 177 179 150 278 229 223 193 190 199 203 195 196 230 244 146 137 230 136 208 267 208 179 166 172 168 280 194 257 21 314 210 220 262 246 246 306
214 213 205 203 198 194 183 167 166 153 184 283 238 214 244 220 206 197 195 209 216 206 147 168 153 224 178 210 242 175 174 189 172 158 266 283 325 308 303 354 324 287 160 275
198 213 209 191 187 182 178 146 134 159 200 258 331 185 216 171 125 118 121 268 182 153 144 145 203 184 161 181 223 155 189 150 146 109 247 277 305 354 346 343 340 328 284 234
173 158 164 164 170 169 167 160 160 176 143 217 176 264 174 153 149 186 192 236 312 136 115 138 139 168 191 207 212 177 199 145 170 292 333 302 287 10 324 315 323 337 333 294
140 144 148 150 153 159 141 121 173 213 134 141 158 154 230 164 162 154 181 91 93 257 124 118 212 176 323 278 76 219 187 163 167 216 218 189 199 168 219 273 315 310 315 314
124 129 140 142 136 128 109 114 201 227 80 118 149 201 151 161 153 154 153 159 134 68 109 221 267 246 162 231 189 254 291 326 139 247 292 228 216 204 200 218 185 267 266 217
119 124 131 142 142 124 97 174 158 147 231 172 69 54 4 24 139 123 140 152 120 107 49 208 230 252 91 111 71 357 357 345 14 15 353 359 23 354 350 31 342 322 319 316
118 123 119 132 117 113 68 49 112 195 107 58 97 292 40 16 155 100 139 126 128 149 88 268 185 213 190 50 360 350 353 346 15 351 344 329 322 1 15 36 12 360 339 335
98 93 80 50 32 43 180 130 79 64 98 104 78 110 152 346 284 153 59 152 121 162 190 219 97 45 64 359 353 348 348 349 338 335 2 12 15 355 29 35 15 30 31 42
61 42 53 57 354 109 38 33 47 28 8 57 102 77 99 66 339 268 109 119 147 121 223 137 94 83 67 10 356 353 343 343 0 360 7 4 11 45 43 48 49 59 57 61
45 44 41 74 313 41 26 82 96 148 34 98 142 131 122 120 213 184 115 189 187 125 242 133 67 81 12 7 2 2 353 0 9 19 34 37 42 49 58 53 54 59 60 71
117 115 136 73 28 40 73 75 29 77 194 53 126 181 136 188 207 179 238 152 73 173 309 74 69 25 9 13 15 16 16 31 42 44 51 52 56 58 66 65 61 61 68 66
297 67 62 5 9 52 41 109 329 74 352 1 8 135 135 166 236 108 108 141 117 94 50 68 44 3 14 26 28 34 35 44 54 53 55 57 59 54 58 68 65 70 70 68
61 50 45 37 25 39 23 338 333 338 315 312 269 149 178 141 139 345 86 72 2 61 67 58 13 21 24 41 39 47 45 47 54 56 59 62 64 63 60 60 63 70 68 67
48 28 50 39 2 26 331 331 317 11 298 315 20 69 83 110 135 13 69 61 56 40 67 67 38 49 52 53 52 57 62 61 60 59 62 63 65 66 66 61 65 69 71 71
57 43 30 324 30 336 348 343 314 326 310 270 277 29 88 76 48 68 29 81 51 59 59 56 64 54 48 57 62 64 65 65 67 66 68 69 67 69 71 66 62 63 66 68
32 33 23 290 237 289 340 335 324 299 307 32 32 46 7 60 41 50 31 45 77 86 73 55 54 66 64 62 60 56 58 60 62 67 67 69 72 74 71 68 62 64 62 63